Weather History for PHNL - January, 2012

Change the Weather History Date:

Tuesday, January 3, 2012

  Actual Average Record
Temperature  
Mean Temperature 74 °F 74 °F  
Max Temperature 81 °F 80 °F 87 °F (1987)
Min Temperature 66 °F 67 °F 57 °F (1979)
Degree Days  
Heating Degree Days 0 0  
Month to date heating degree days 0 0  
Since 1 July heating degree days 0 0  
Cooling Degree Days 8 8  
Month to date cooling degree days 20 26  
Year to date cooling degree days 20 26  
Growing Degree Days 24 (Base 50)    
Moisture  
Dew Point 66 °F    
Average Humidity 80    
Maximum Humidity 97    
Minimum Humidity 62    
Precipitation  
Precipitation 0.00 in 0.08 in 3.91 in (1969)
Month to date precipitation 0.00 0.28  
Year to date precipitation 0.00 0.28  
Snow  
Snow 0.00 in - - ()
Month to date snowfall 0.0  
Since 1 July snowfall 0.0  
Snow Depth 0.00 in    
Sea Level Pressure  
Sea Level Pressure 30.13 in    
Wind  
Wind Speed 4 mph (NNE)    
Max Wind Speed 8 mph    
Max Gust Speed -    
Visibility 8 miles    
Events      
T = Trace of Precipitation, MM = Missing Value Source: NWS Daily Summary

Daily Weather History Graph

Daily Weather History Graph

Search for Another Location

Airport or City:

Trip Planner

Search our weather history database for the weather conditions in past years. The results will help you decide how hot, cold, wet, or windy it might be!

Date:

Astronomy

Jan. 03, 2012 Rise Set
Actual Time 7:09 AM HST 6:02 PM HST
Civil Twilight 6:45 AM HST 6:26 PM HST
Nautical Twilight 6:18 AM HST 6:54 PM HST
Astronomical Twilight 5:50 AM HST 7:21 PM HST
Moon 1:47 PM HST (1/3) 2:22 AM HST (1/3)
Length of Visible Light 11h 40m
Length of Day
10h 52m
Waxing Gibbous, 74% of the Moon is Illuminated
Jan 3
Waxing Gibbous
Jan 8
Full
Jan 15
Last Quarter
Jan 22
New
Jan 30
First Quarter

Hourly Weather History & Observations

Time (HST) Temp. Heat Index Dew Point Humidity Pressure Visibility Wind Dir Wind Speed Gust Speed Precip Events Conditions
12:53 AM 69.6 °F - 68.0 °F 95% 30.10 in 7.0 mi NNW 3.5 mph - N/A   Mostly Cloudy
1:53 AM 70.5 °F - 66.9 °F 88% 30.09 in 7.0 mi Calm Calm - N/A   Partly Cloudy
2:53 AM 70.5 °F - 64.9 °F 82% 30.09 in 7.0 mi Calm Calm - N/A   Partly Cloudy
3:53 AM 70.5 °F - 64.9 °F 82% 30.09 in 7.0 mi Calm Calm - N/A   Partly Cloudy
4:53 AM 66.9 °F - 64.9 °F 93% 30.08 in 8.0 mi Calm Calm - N/A   Clear
5:53 AM 66.0 °F - 64.0 °F 93% 30.09 in 8.0 mi North 3.5 mph - N/A   Clear
6:53 AM 67.3 °F - 64.9 °F 92% 30.11 in 8.0 mi Variable 4.6 mph - N/A   Scattered Clouds
7:53 AM 70.5 °F - 64.9 °F 82% 30.14 in 7.0 mi NW 3.5 mph - N/A   Scattered Clouds
8:53 AM 75.9 °F - 66.0 °F 71% 30.16 in 8.0 mi Calm Calm - N/A   Scattered Clouds
9:53 AM 79.0 °F - 66.0 °F 64% 30.17 in 8.0 mi SE 5.8 mph - N/A   Scattered Clouds
10:53 AM 78.1 °F - 66.9 °F 68% 30.16 in 9.0 mi South 6.9 mph - N/A   Scattered Clouds
11:53 AM 80.1 °F 82.3 °F 66.9 °F 64% 30.13 in 8.0 mi South 8.1 mph - N/A   Scattered Clouds
12:53 PM 80.1 °F 83.2 °F 70.0 °F 71% 30.10 in 7.0 mi South 8.1 mph - N/A   Scattered Clouds
1:53 PM 80.1 °F 82.9 °F 69.1 °F 69% 30.09 in 8.0 mi South 8.1 mph - N/A   Scattered Clouds
2:53 PM 80.1 °F 82.3 °F 66.9 °F 64% 30.09 in 8.0 mi South 5.8 mph - N/A   Scattered Clouds
3:53 PM 81.0 °F 83.0 °F 66.0 °F 60% 30.10 in 9.0 mi South 4.6 mph - N/A   Mostly Cloudy
4:53 PM 79.0 °F - 66.0 °F 64% 30.12 in 8.0 mi Calm Calm - N/A   Mostly Cloudy
5:00 PM 78.8 °F - 66.2 °F 65% 30.12 in 8.0 mi Calm Calm - N/A   Overcast
5:30 PM 78.8 °F - 66.2 °F 65% 30.13 in 6.0 mi Variable 5.8 mph - N/A   Haze
5:53 PM 79.0 °F - 66.9 °F 66% 30.14 in 6.0 mi NNE 8.1 mph - N/A   Haze
6:53 PM 78.1 °F - 66.9 °F 68% 30.16 in 8.0 mi NNE 4.6 mph - N/A   Mostly Cloudy
7:53 PM 77.0 °F - 66.0 °F 69% 30.18 in 9.0 mi NE 6.9 mph - N/A   Mostly Cloudy
8:53 PM 77.0 °F - 64.9 °F 66% 30.19 in 9.0 mi ENE 8.1 mph - N/A   Mostly Cloudy
9:53 PM 75.9 °F - 64.9 °F 69% 30.19 in 9.0 mi North 4.6 mph - N/A   Scattered Clouds
10:53 PM 75.0 °F - 64.9 °F 71% 30.18 in 9.0 mi NNW 5.8 mph - N/A   Scattered Clouds
11:53 PM 73.9 °F - 66.9 °F 79% 30.18 in 8.0 mi NNW 4.6 mph - N/A   Scattered Clouds